This demonstration page uses our WeatherBlox Daily Observations layout. Learn more.

39.29038, -76.61219

Hourly Observations for May 25, 2019

Temp ( °F °C ) Dew Point ( °F °C ) Humidity (%) Winds ( mph kmh ) Pressure ( in mb ) Visibility ( mi km ) Precip ( " mm )
12:54 am 00:54 undefined 73 22.8 52 11.1 48 48 undefined N/A 30.09 1019 N/A 0 0
1:54 am 01:54 undefined 72 22.2 52 11.1 50 50 undefined N/A 30.09 1019 N/A 0 0
2:54 am 02:54 undefined 70 21.1 54 12.2 57 57 undefined N/A 30.12 1020 N/A 0 0
3:54 am 03:54 undefined 68 20 53 11.7 59 59 undefined N/A 30.12 1020 N/A 0 0
4:54 am 04:54 undefined 67 19.4 52 11.1 59 59 undefined N/A 30.15 1021 N/A 0 0
5:54 am 05:54 undefined 67 19.4 52 11.1 59 59 undefined N/A 30.18 1022 N/A 0 0
6:54 am 06:54 undefined 66 18.9 52 11.1 61 61 undefined N/A 30.18 1022 N/A 0 0
7:54 am 07:54 undefined 66 18.9 53 11.7 63 63 undefined N/A 30.21 1023 N/A 0 0
8:54 am 08:54 undefined 67 19.4 54 12.2 63 63 undefined N/A 30.21 1023 N/A 0 0
9:54 am 09:54 undefined 68 20 54 12.2 61 61 undefined N/A 30.21 1023 N/A 0 0
10:54 am 10:54 undefined 71 21.7 56 13.3 59 59 undefined N/A 30.21 1023 N/A 0 0
11:54 am 11:54 undefined 71 21.7 57 13.9 61 61 undefined N/A 30.21 1023 N/A 0 0
12:54 pm 12:54 undefined 72 22.2 58 14.4 61 61 undefined N/A 30.18 1022 N/A 0 0
1:54 pm 13:54 undefined 73 22.8 58 14.4 59 59 undefined N/A 30.15 1021 N/A 0 0
2:54 pm 14:54 undefined 74 23.3 59 15 60 60 undefined N/A 30.12 1020 N/A 0 0
3:54 pm 15:54 undefined 78 25.6 60 15.6 54 54 undefined N/A 30.09 1019 N/A 0 0
4:54 pm 16:54 undefined 77 25 59 15 54 54 undefined N/A 30.06 1018 N/A 0 0
5:54 pm 17:54 undefined 76 24.4 60 15.6 58 58 undefined N/A 30.06 1018 N/A 0 0
6:54 pm 18:54 undefined 74 23.3 60 15.6 62 62 undefined N/A 30.09 1019 N/A 0 0
7:54 pm 19:54 undefined 73 22.8 61 16.1 66 66 undefined N/A 30.06 1018 N/A 0 0
8:54 pm 20:54 undefined 71 21.7 62 16.7 73 73 undefined N/A 30.03 1017 N/A 0 0
9:54 pm 21:54 undefined 71 21.7 62 16.7 73 73 undefined N/A 30.06 1018 N/A 0 0
10:54 pm 22:54 undefined 71 21.7 62 16.7 73 73 undefined N/A 30.03 1017 N/A 0 0
11:54 pm 23:54 undefined 71 21.7 63 17.2 76 76 undefined N/A 30.03 1017 N/A 0 0

Powered by AerisWeather